When you browse on this site, cookies collect data to enhance your experience and personalize the content and advertising you see.
Visit our Privacy Policy to learn more. By continuing to use the site, you agree to this use of cookies and data.
  • In Hungary
  • List of Countries
  • For 7 days
  • Water Temperature
  • Satellite Maps
  • Weather Map
  • News
  • Weather Widgets
  • user-avatar
    Login

    Hourly Weather Thimphu

    Today, 21 November, Wednesday

    Time Temperature Precipitation Wind Pressure Humidity
    00:00 +1°C° 0 mm 2 mps 522 mmHg 81%
    01:00 +1°C° 0 mm 2 mps 522 mmHg 76%
    02:00 +1°C° 0 mm 2 mps 522 mmHg 72%
    03:00 +1°C° 0 mm 2 mps 522 mmHg 68%
    04:00 +1°C° 0 mm 2 mps 522 mmHg 64%
    05:00 -1°C° 0 mm 2 mps 523 mmHg 60%
    06:00 -1°C° 0 mm 2 mps 523 mmHg 57%
    07:00 +3°C° 0 mm 2 mps 524 mmHg 50%
    08:00 +6°C° 0 mm 2 mps 526 mmHg 43%
    09:00 +9°C° 0 mm 1 mps 528 mmHg 37%
    10:00 +9°C° 0 mm 2 mps 528 mmHg 36%
    11:00 +12°C° 0 mm 2 mps 529 mmHg 35%
    12:00 +13°C° 0 mm 2 mps 529 mmHg 35%
    13:00 +12°C° 0 mm 2 mps 528 mmHg 40%
    14:00 +11°C° 0 mm 3 mps 527 mmHg 45%
    15:00 +10°C° 0 mm 3 mps 527 mmHg 51%
    16:00 +8°C° 0 mm 2 mps 525 mmHg 62%
    17:00 +6°C° 0 mm 1 mps 524 mmHg 74%
    18:00 +4°C° 0 mm 1 mps 523 mmHg 86%
    19:00 +4°C° 0 mm 1 mps 523 mmHg 81%
    20:00 +4°C° 0 mm 1 mps 524 mmHg 77%
    21:00 +3°C° 0 mm 2 mps 524 mmHg 73%
    22:00 +2°C° 0 mm 2 mps 524 mmHg 68%
    23:00 +2°C° 0 mm 2 mps 524 mmHg 63%

    Tomorrow, 22 November, Thursday

    Time Temperature Precipitation Wind Pressure Humidity
    00:00 +2°C° 0 mm 2 mps 524 mmHg 58%
    01:00 +2°C° 0 mm 2 mps 524 mmHg 54%
    02:00 +2°C° 0 mm 2 mps 524 mmHg 51%
    03:00 +2°C° 0 mm 2 mps 523 mmHg 47%
    04:00 +2°C° 0 mm 2 mps 524 mmHg 45%
    05:00 +2°C° 0 mm 2 mps 524 mmHg 42%
    06:00 +2°C° 0 mm 2 mps 524 mmHg 40%
    07:00 +5°C° 0 mm 2 mps 526 mmHg 37%
    08:00 +8°C° 0 mm 1 mps 528 mmHg 34%
    09:00 +11°C° 0 mm 1 mps 530 mmHg 30%
    10:00 +12°C° 0 mm 1 mps 530 mmHg 31%
    11:00 +13°C° 0 mm 2 mps 530 mmHg 32%
    12:00 +14°C° 0 mm 2 mps 531 mmHg 33%
    13:00 +14°C° 0 mm 2 mps 530 mmHg 39%
    14:00 +13°C° 0 mm 2 mps 529 mmHg 45%
    15:00 +12°C° 0 mm 2 mps 528 mmHg 51%
    16:00 +9°C° 0 mm 2 mps 527 mmHg 63%
    17:00 +6°C° 0 mm 2 mps 526 mmHg 75%
    18:00 +5°C° 0 mm 1 mps 524 mmHg 87%
    19:00 +5°C° 0 mm 1 mps 525 mmHg 85%
    20:00 +5°C° 0 mm 1 mps 525 mmHg 83%
    21:00 +4°C° 0 mm 1 mps 525 mmHg 82%
    22:00 +4°C° 0 mm 1 mps 525 mmHg 81%
    23:00 +4°C° 0 mm 1 mps 525 mmHg 80%

    Day after tomorrow, 23 November, Friday

    Time Temperature Precipitation Wind Pressure Humidity
    00:00 +4°C° 0 mm 1 mps 524 mmHg 79%
    01:00 +3°C° 0 mm 1 mps 524 mmHg 78%
    02:00 +2°C° 0 mm 2 mps 524 mmHg 78%
    03:00 +2°C° 0 mm 2 mps 523 mmHg 77%
    04:00 +2°C° 0 mm 2 mps 523 mmHg 75%
    05:00 +2°C° 0 mm 2 mps 523 mmHg 74%
    06:00 +1°C° 0 mm 2 mps 523 mmHg 72%
    07:00 +4°C° 0 mm 2 mps 525 mmHg 63%
    08:00 +6°C° 0 mm 2 mps 527 mmHg 54%
    09:00 +9°C° 0 mm 2 mps 528 mmHg 45%
    10:00 +10°C° 0 mm 2 mps 528 mmHg 43%
    11:00 +12°C° 0 mm 2 mps 529 mmHg 41%
    12:00 +12°C° 0 mm 3 mps 529 mmHg 38%
    13:00 +11°C° 0 mm 3 mps 528 mmHg 42%
    14:00 +11°C° 0 mm 3 mps 527 mmHg 46%
    15:00 +10°C° 0 mm 3 mps 526 mmHg 49%
    16:00 +8°C° 0 mm 2 mps 525 mmHg 61%
    17:00 +5°C° 0 mm 2 mps 524 mmHg 72%
    18:00 +3°C° 0 mm 2 mps 523 mmHg 83%
    19:00 +3°C° 0 mm 2 mps 523 mmHg 81%
    20:00 +3°C° 0 mm 2 mps 523 mmHg 79%
    21:00 +2°C° 0 mm 2 mps 524 mmHg 77%
    22:00 +2°C° 0 mm 2 mps 524 mmHg 73%
    23:00 +2°C° 0 mm 2 mps 524 mmHg 68%

    24 November, Saturday

    Time Temperature Precipitation Wind Pressure Humidity
    00:00 +2°C° 0 mm 2 mps 524 mmHg 63%
    01:00 +2°C° 0 mm 2 mps 524 mmHg 58%
    02:00 +2°C° 0 mm 2 mps 523 mmHg 53%
    03:00 +1°C° 0 mm 3 mps 523 mmHg 49%
    04:00 +1°C° 0 mm 3 mps 523 mmHg 46%
    05:00 0°C° 0 mm 3 mps 523 mmHg 43%
    06:00 0°C° 0 mm 3 mps 524 mmHg 40%
    07:00 +4°C° 0 mm 2 mps 526 mmHg 34%
    08:00 +7°C° 0 mm 2 mps 528 mmHg 29%
    09:00 +10°C° 0 mm 2 mps 530 mmHg 24%
    10:00 +12°C° 0 mm 2 mps 530 mmHg 23%
    11:00 +13°C° 0 mm 2 mps 530 mmHg 23%
    12:00 +14°C° 0 mm 2 mps 531 mmHg 23%
    13:00 +13°C° 0 mm 2 mps 530 mmHg 28%
    14:00 +13°C° 0 mm 2 mps 529 mmHg 33%
    15:00 +12°C° 0 mm 2 mps 528 mmHg 37%
    16:00 +8°C° 0 mm 2 mps 527 mmHg 49%
    17:00 +6°C° 0 mm 2 mps 526 mmHg 60%
    18:00 +3°C° 0 mm 2 mps 524 mmHg 71%
    19:00 +3°C° 0 mm 2 mps 525 mmHg 65%
    20:00 +3°C° 0 mm 2 mps 525 mmHg 58%
    21:00 +3°C° 0 mm 2 mps 525 mmHg 52%
    22:00 +3°C° 0 mm 2 mps 525 mmHg 47%
    23:00 +2°C° 0 mm 2 mps 525 mmHg 42%

    25 November, Sunday

    Time Temperature Precipitation Wind Pressure Humidity
    00:00 +1°C° 0 mm 3 mps 525 mmHg 38%
    01:00 +1°C° 0 mm 3 mps 525 mmHg 35%
    02:00 +1°C° 0 mm 3 mps 524 mmHg 32%
    03:00 +1°C° 0 mm 3 mps 524 mmHg 29%
    04:00 +1°C° 0 mm 3 mps 524 mmHg 27%
    05:00 0°C° 0 mm 3 mps 524 mmHg 26%
    06:00 0°C° 0 mm 3 mps 524 mmHg 24%
    07:00 +4°C° 0 mm 2 mps 527 mmHg 22%
    08:00 +9°C° 0 mm 1 mps 529 mmHg 19%
    09:00 +12°C° 0 mm 1 mps 531 mmHg 16%
    10:00 +13°C° 0 mm 1 mps 531 mmHg 16%
    11:00 +14°C° 0 mm 2 mps 531 mmHg 17%
    12:00 +15°C° 0 mm 2 mps 531 mmHg 17%
    13:00 +14°C° 0 mm 2 mps 530 mmHg 21%
    14:00 +13°C° 0 mm 2 mps 529 mmHg 25%
    15:00 +13°C° 0 mm 2 mps 528 mmHg 29%
    16:00 +9°C° 0 mm 2 mps 527 mmHg 39%
    17:00 +6°C° 0 mm 2 mps 525 mmHg 50%
    18:00 +4°C° 0 mm 1 mps 524 mmHg 60%
    19:00 +3°C° 0 mm 2 mps 524 mmHg 57%
    20:00 +3°C° 0 mm 2 mps 525 mmHg 55%
    21:00 +2°C° 0 mm 2 mps 525 mmHg 53%
    22:00 +2°C° 0 mm 2 mps 525 mmHg 50%
    23:00 +2°C° 0 mm 2 mps 524 mmHg 47%

    26 November, Monday

    Time Temperature Precipitation Wind Pressure Humidity
    00:00 +2°C° 0 mm 2 mps 524 mmHg 45%
    01:00 +2°C° 0 mm 2 mps 524 mmHg 42%
    02:00 +2°C° 0 mm 2 mps 523 mmHg 40%
    03:00 +1°C° 0 mm 2 mps 523 mmHg 37%
    04:00 +1°C° 0 mm 2 mps 523 mmHg 35%
    05:00 +1°C° 0 mm 2 mps 523 mmHg 34%
    06:00 +1°C° 0 mm 2 mps 523 mmHg 32%
    07:00 +4°C° 0 mm 2 mps 525 mmHg 28%
    08:00 +8°C° 0 mm 1 mps 527 mmHg 24%
    09:00 +11°C° 0 mm 1 mps 529 mmHg 20%
    10:00 +12°C° 0 mm 1 mps 529 mmHg 20%
    11:00 +13°C° 0 mm 2 mps 529 mmHg 20%
    12:00 +13°C° 0 mm 2 mps 529 mmHg 20%
    13:00 +13°C° 0 mm 2 mps 529 mmHg 24%
    14:00 +12°C° 0 mm 2 mps 528 mmHg 28%
    15:00 +12°C° 0 mm 2 mps 527 mmHg 32%
    16:00 +8°C° 0 mm 2 mps 526 mmHg 43%
    17:00 +5°C° 0 mm 2 mps 524 mmHg 55%
    18:00 +3°C° 0 mm 1 mps 523 mmHg 67%
    19:00 +3°C° 0 mm 1 mps 523 mmHg 65%
    20:00 +3°C° 0 mm 1 mps 524 mmHg 63%
    21:00 +2°C° 0 mm 2 mps 524 mmHg 61%
    22:00 +2°C° 0 mm 2 mps 524 mmHg 59%
    23:00 +2°C° 0 mm 2 mps 524 mmHg 58%
    Show more